Miscellaneous Local Product
Issued by NWS North Platte, NE

Home | Current Version | Previous Version | Text Only | Print | Product List | Glossary On
Versions: 1 2 3 4 5 6 7 8 9 10 11 12 13 14 15 16 17 18 19 20 21 22 23 24 25 26 27 28 29 30 31 32 33 34 35 36 37 38 39 40 41 42 43 44 45 46 47 48 49 50
132
AXUS43 KLBF 251810
MISLBF


WESTERN AND NORTH CENTRAL NEBRASKA HOURLY WEATHER ROUNDUP
NATIONAL WEATHER SERVICE NORTH PLATTE NE
100 PM CDT TUE APR 25 2017

NOTE: "FAIR" INDICATES FEW OR NO CLOUDS BELOW 12,000 FEET WITH NO
SIGNIFICANT WEATHER AND/OR OBSTRUCTIONS TO VISIBILITY.

NOTE: STATIONS NOT REPORTING VARIABLES SUCH AS SKY/WEATHER OR
PRESSURE ARE PROVIDED BY RAWS AND APRS NETWORKS AND ARE NOT UNDER
NATIONAL WEATHER SERVICE QUALITY CONTROL.

...OBSERVATIONS IN AND NEAR THE EASTERN PANHANDLE OF NEBRASKA...

CITY           SKY/WX    TMP DP  RH WIND       PRES   REMARKS
PINE RIDGE     MIX PCPN  34  32  92 NE15      29.71R WCI  24
CHADRON        CLOUDY    35  31  85 NE15      29.72R WCI  25
ALLIANCE       CLOUDY    38  36  92 NE15      29.63R WCI  29
SIDNEY         PTSUNNY   56  37  49 N16       29.57F
CRESCENT LAKE    N/A     41  39  93 E10         N/A
$$

...OBSERVATIONS IN NORTHERN NEBRASKA AND FAR SOUTHERN SOUTH DAKOTA...

CITY           SKY/WX    TMP DP  RH WIND       PRES   REMARKS
WINNER         CLOUDY    37  31  78 N14G23    29.69R WCI  28
VALENTINE      CLOUDY    37  32  82 N12       29.69R WCI  29
THEDFORD       RAIN      39  36  90 N12       29.65R WCI  32
AINSWORTH      CLOUDY    35  35 100 N15       29.66R FOG     WCI  25
O`NEILL        CLOUDY    37  35  90 N16G23    29.62R WCI  28
ORD            CLOUDY    40  36  86 N14       29.59R WCI  32
BROKEN BOW     CLOUDY    41  50 100 N17       29.59S
VALENTINE NWR    N/A     35  33  94 N7G17       N/A  WCI  29
HALSEY           N/A     38  36  94 NW6         N/A  WCI  33
BUTTE            N/A     35  32  89 N14G22      N/A  WCI  26
CHAMBERS         N/A     38  36  94 N6          N/A  WCI  33
EWING            N/A     38  36  94 N10G18      N/A  WCI  31
$$

...OBSERVATIONS IN SOUTHWEST NEBRASKA AND FAR NORTHEAST COLORADO...

CITY           SKY/WX    TMP DP  RH WIND       PRES   REMARKS
HOLYOKE        FAIR      59  43  55 N9        29.57F
IMPERIAL       CLOUDY    48  43  82 N13       29.59S
OGALLALA       CLOUDY    46  41  82 NE6       29.61F
NORTH PLATTE   CLOUDY    44  39  82 N13       29.60F
MCCOOK         CLOUDY    49  44  83 N15       29.56F
LEXINGTON      CLOUDY    42  38  85 N14       29.60R
STAPLETON        N/A     41  38  91 CALM        N/A
GOTHENBURG       N/A     41  36  81 N7          N/A
CALLAWAY         N/A     38  36  94 N9          N/A  WCI  31
$$

...OBSERVATIONS IN CENTRAL LINCOLN COUNTY AREA...

CITY           SKY/WX    TMP DP  RH WIND       PRES   REMARKS
N.P. AIRPORT   CLOUDY    44  39  82 N13       29.60F
N.P. DOWNTOWN    N/A     42  39  89 NE9         N/A
N.P. SOUTHEAST   N/A     42  38  85 N5G12       N/A
N.P. HILLCREST   N/A     42  39  88 NE14        N/A
$$

...SOME OBSERVATIONS FROM AROUND THE REGION...

CITY           SKY/WX    TMP DP  RH WIND       PRES   REMARKS
DENVER         PTSUNNY   56  25  30 VRB5G16   29.59R
LIMON          PTSUNNY   54  33  45 N9G16     29.59S
ASPEN          FLURRIES  35  30  82 VRB3      29.69S
LARAMIE        MOSUNNY   46  24  42 W23G37    29.61R
CASPER         LGT SNOW  31  27  85 N21       29.72R FOG     WCI  18
CHEYENNE       SUNNY     48  25  40 W23       29.61R
SCOTTSBLUFF    CLOUDY    46  40  79 NE25G31   29.60R
GRAND ISLAND   CLOUDY    41  40  96 N16       29.58S
OMAHA          CLOUDY    53  44  71 N17       29.48F
SIOUX FALLS    LGT RAIN  41  39  93 N14       29.58F
PIERRE         CLOUDY    35  28  75 N20G28    29.72F WCI  24
RAPID CITY     LGT SNOW  30  28  92 N17       29.75S VSB 3/4 WCI  18
BISMARCK       CLOUDY    32  26  78 N14G23    29.88R WCI  22
KANSAS CITY    CLOUDY    70  53  54 S10       29.42F
HILL CITY      CLOUDY    58  44  60 N17       29.53F
WICHITA        CLOUDY    72  56  57 W6        29.39S
DODGE CITY     CLOUDY    57  46  66 N18       29.48S
OKLAHOMA CITY  MOSUNNY   81  55  40 SW13G21   29.40F
DALLAS         PTSUNNY   82  65  56 S23G30    29.49F
AMARILLO       CLOUDY    62  39  42 N15       29.53R
$$




USA.gov is the U.S. government's official web portal to all federal, state and local government web resources and services.